Tracking 31027 objects as of 19-Jul-2025
HD Live streaming from Space Station
objects crossing your sky now

INTELSAT 2 (PAS 2)

Track INTELSAT 2 (PAS 2) now!
INTELSAT 2 (PAS 2) is classified as:


NORAD ID: 23175
Int'l Code: 1994-040A
Perigee: 36,077.0 km
Apogee: 36,119.5 km
Inclination: 11.6 °
Period: 1,451.7 minutes
Semi major axis: 42469 km
RCS: 6.3096 m2 (large)
Launch date: July 8, 1994
Source: United States (US)
Launch site: FRENCH GUIANA (FRGUI)

12 Ku-band; Asia-Pacific.
Your satellite tracking list
CZ-3A R/B
Track 1 satellite(s)




NASA's NSSDC Master Catalog

Two Line Element Set (TLE):
1 23175U 94040A   25199.59974363 -.00000306  00000-0  00000-0 0  9997
2 23175  11.6448  37.2299 0005003  69.2843 181.6939  0.99195435112338
Source of the keplerian elements: AFSPC